This is the latest recevied weather packets stored in our database for station/object KI6AOK. If no packets are shown the sender has not sent any weather packets the latest 10 day(s).
| Time | Temp. | Humidity | Pressure | Rain* | Wind** | Luminosity | Snow |
|---|---|---|---|---|---|---|---|
| 1777521241 | 15° C | 81% | 1015.7 hPa | 0 mm | - | 0 W/m² | - |
| 1777520939 | 15° C | 80% | 1015.6 hPa | 0 mm | - | 0 W/m² | - |
| 1777520635 | 15.56° C | 80% | 1015.6 hPa | 0 mm | - | 0 W/m² | - |
| 1777520332 | 15.56° C | 80% | 1015.9 hPa | 0 mm | - | 0 W/m² | - |
| 1777520030 | 15.56° C | 80% | 1015.7 hPa | 0 mm | - | 0 W/m² | - |
| 1777519726 | 15.56° C | 80% | 1015.8 hPa | 0 mm | - | 0 W/m² | - |
| 1777519423 | 15.56° C | 79% | 1015.7 hPa | 0 mm | - | 0 W/m² | - |
| 1777519120 | 15.56° C | 79% | 1015.7 hPa | 0 mm | - | 0 W/m² | - |
| 1777518816 | 15.56° C | 77% | 1015.6 hPa | 0 mm | - | 0 W/m² | - |
| 1777518512 | 16.11° C | 76% | 1015.6 hPa | 0 mm | - | 0 W/m² | - |
| 1777518207 | 16.11° C | 76% | 1015.6 hPa | 0 mm | - | 0 W/m² | - |
| 1777517904 | 16.11° C | 74% | 1015.7 hPa | 0 mm | - | 0 W/m² | - |
| 1777517600 | 16.67° C | 72% | 1015.4 hPa | 0 mm | - | 0 W/m² | - |
| 1777517298 | 16.67° C | 71% | 1015.4 hPa | 0 mm | - | 0 W/m² | - |
| 1777516997 | 16.67° C | 70% | 1015.3 hPa | 0 mm | - | 0 W/m² | - |
| 1777516694 | 16.67° C | 67% | 1015.3 hPa | 0 mm | - | 1 W/m² | - |
| 1777516390 | 17.22° C | 65% | 1015.2 hPa | 0 mm | - | 3 W/m² | - |
| 1777516086 | 17.22° C | 65% | 1015.2 hPa | 0 mm | - | 6 W/m² | - |
| 1777515783 | 17.22° C | 65% | 1014.9 hPa | 0 mm | - | 11 W/m² | - |
| 1777515479 | 17.22° C | 66% | 1015 hPa | 0 mm | - | 16 W/m² | - |
| 1777515176 | 17.78° C | 66% | 1015.2 hPa | 0 mm | - | 22 W/m² | - |
| 1777514872 | 17.78° C | 65% | 1014.9 hPa | 0 mm | - | 33 W/m² | - |
| 1777514569 | 18.33° C | 63% | 1014.7 hPa | 0 mm | - | 39 W/m² | - |
| 1777514267 | 18.89° C | 61% | 1014.9 hPa | 0 mm | - | 50 W/m² | - |
| 1777513963 | 19.44° C | 58% | 1014.9 hPa | 0 mm | - | 53 W/m² | - |
* Rain latest hour (hover to see other rain measurements)
** Current wind speed in m/s (hover to see current wind gust speed)